Powrót do katalogu

STARLINK-6363

AktywnyŁącznośćVLEO
NORAD 57375·PAYLOAD·🇺🇸 United States

Wystrzelony Jul 16, 2023 z Cape Canaveral Space Force Station

Loading…

Następne Przeloty (najbliższe 24 godziny)

TLE

ŚwieżeSource: CelesTrak SupGP

Epoka: Sep 15, 2026, 02:24 UTC

1 57375C 23099AZ  26258.10048611 -.00131340  00000+0 -47545-2 0  2582
2 57375  43.0008 252.1826 0000974 280.9418 123.1154 15.27662353    10

Śledź STARLINK-6363 w czasie rzeczywistym z AllMySat

Download on the App Store